Location: Bandys
(35.4750°N, 81.0830°W)
Time: 05:19:26
(UTC-05:00)

Daily predictions for brighter satellites

Satellite Brightness Start Highest point End
(mag) Time Altitude Azimuth Time Altitude Azimuth Time Altitude Azimuth
Cosmos 2369 Rocket 4.5 03:43:44 18° NNE 03:43:44 18° NNE 03:45:07 10° NNE
ATLAS 5 CENTAUR R/B 3.6 04:22:37 25° NNE 04:22:37 25° NNE 04:24:48 10° NNE
Cosmos 1943 Rocket 2.8 04:28:16 50° NE 04:28:16 50° NE 04:32:23 10° NNE
CZ-4B R/B 4.3 04:26:50 10° N 04:30:06 37° N 04:30:06 37° N
CZ-4C R/B 3.2 04:33:26 34° SE 04:34:41 39° ESE 04:39:52 10° NE
Okean-O 3.8 04:31:26 10° NNE 04:35:37 40° E 04:35:45 40° ESE
Meteor 1-26 Rocket 4.4 04:51:54 10° S 04:57:35 71° E 05:03:12 10° NNE
Thor Agena Rocket 4.0 04:57:19 10° SSE 05:02:27 60° ENE 05:07:33 10° N
Cosmos 1703 Rocket 3.5 05:04:09 68° SSE 05:04:40 82° E 05:09:02 10° N
Cosmos 972 4.2 05:07:46 68° W 05:08:00 69° WNW 05:13:05 10° N
USA 234 3.6 05:02:34 10° NNE 05:08:45 48° NW 05:10:14 41° WNW
ADEOS II 3.3 05:04:34 10° N 05:07:16 26° NNW 05:07:16 26° NNW
Lacrosse 5 2.5 05:10:00 39° NNW 05:10:00 39° NNW 05:14:22 10° NNE
Cosmos 1553 Rocket 4.5 05:04:44 10° S 05:10:46 61° E 05:16:56 10° NNE
Cosmos 1452 Rocket 3.4 05:10:36 31° SSW 05:13:11 83° WNW 05:18:30 10° NNE
Delta 2 Rocket 4.4 05:12:52 39° SSW 05:14:07 48° SSE 05:19:13 10° E
Meteor 1-31 Rocket 3.5 05:12:16 10° N 05:14:57 41° N 05:14:57 41° N
SJ-6F 4.4 05:15:27 10° NNE 05:19:36 86° E 05:23:42 10° SSW
Cosmos 2369 Rocket 3.9 05:25:33 16° NW 05:25:33 16° NW 05:27:43 10° NNW
ATLAS 3B R/B 3.8 05:22:50 10° S 05:30:06 50° ESE 05:37:11 10° NE
COSMO-SKYMED 1 3.2 05:26:29 10° SSE 05:30:43 57° ENE 05:34:59 10° N
Feng Yun 1-1 Rocket 4.4 05:26:18 10° N 05:32:03 57° WNW 05:37:49 10° SSW
Cosmos 2221 Rocket 3.6 05:28:07 10° SSW 05:32:37 61° W 05:37:08 10° N
Cosmos 407 Rocket 3.7 05:28:11 10° NNW 05:33:20 49° WSW 05:38:25 10° S
Cosmos 1656 Rocket 3.6 05:28:47 15° SSW 05:33:25 65° WNW 05:39:06 10° NNE
Cosmos 676 Rocket 3.9 05:31:50 10° NNW 05:37:07 68° WSW 05:42:23 10° S
GEOS 3 Rocket 4.5 05:44:05 10° S 05:48:21 27° WSW 05:49:56 23° W
Cosmos 1833 4.4 05:43:32 10° NW 05:48:50 45° WSW 05:54:08 10° S
Cosmos 1140 Rocket 3.4 05:49:09 10° NNW 05:54:22 79° WSW 05:59:36 10° SSE
Okean 1-7 3.5 05:53:51 10° SW 05:57:46 35° W 06:01:41 10° NNW
Cosmos 614 Rocket 3.9 05:58:16 10° NNW 06:03:23 87° WSW 06:08:31 10° SSE
Cosmos 1745 Rocket 3.9 05:57:28 10° N 06:03:36 71° W 06:09:40 10° S
ATLAS 5 CENTAUR R/B 3.8 06:04:11 11° NW 06:05:20 12° NW 06:07:14 10° NNW
Radarsat Rocket 4.3 05:58:41 10° N 06:05:45 59° WNW 06:11:57 10° SSW
Meteor 2-10 Rocket 4.4 06:03:00 10° SW 06:07:00 24° WNW 06:11:02 10° NNW
Tiangong 1 2.5 06:07:42 16° NW 06:09:10 24° NNW 06:11:39 10° NE
Cosmos 1386 Rocket 4.4 06:04:17 10° N 06:10:20 84° W 06:16:29 10° S
Cosmos 1943 Rocket 3.8 06:09:50 13° WNW 06:11:11 14° NW 06:14:02 10° NNW
Cosmos 1782 Rocket 4.4 06:07:34 10° NNW 06:11:21 28° W 06:15:07 10° SSW
Okean-O 4.2 06:09:01 10° NNW 06:11:44 16° WNW 06:13:21 14° W
CZ-2C R/B 3.6 06:07:25 10° NNE 06:12:11 48° E 06:17:02 10° S
Meteor 1-28 Rocket 3.2 06:09:26 10° S 06:13:05 57° W 06:16:46 10° NNW
Cosmos 1633 3.9 06:10:00 10° N 06:13:28 44° E 06:16:56 10° SSE
Meteor 1-20 Rocket 4.3 06:10:37 10° NNW 06:16:12 57° W 06:21:38 10° S
PAYLOAD A 4.0 06:12:52 10° NNE 06:17:38 83° ESE 06:22:30 10° S
SKYMED 2 4.1 06:14:48 10° SSW 06:18:49 37° W 06:22:51 10° NNW
Cosmos 1782 3.3 06:15:37 10° SSW 06:19:17 37° W 06:22:59 10° N
Cosmos 1850 Rocket 4.0 06:13:59 10° NNW 06:19:19 75° WSW 06:24:35 10° S
Cosmos 1300 Rocket 4.5 06:17:44 10° N 06:22:05 54° E 06:26:22 10° SSE
CZ-4C R/B 3.2 06:18:46 10° WSW 06:23:16 27° NW 06:28:13 10° NNE
IDEFIX/ARIANE 42P 3.0 06:20:49 10° NNE 06:26:02 70° ESE 06:31:12 10° S
Ariane Rocket 3.1 06:25:47 10° N 06:30:44 53° WNW 06:35:38 10° SSW
CSL-04 Rocket 3.7 06:26:22 10° N 06:31:41 64° WNW 06:37:03 10° SSW
SeaSat 1 4.4 06:28:53 10° NE 06:33:22 34° ESE 06:37:50 10° S
Okean 2 Rocket 4.3 06:30:48 10° NW 06:34:05 21° W 06:37:22 10° SW
Cosmos 1602 3.9 06:30:32 10° N 06:34:30 84° E 06:38:27 10° S
Cosmos 1674 Rocket 3.6 06:30:26 10° SSW 06:34:46 63° W 06:39:10 10° N
